Location: Graveney
(51.3167°N, 0.9333°E)
Time: 22:03:26
(UTC+00:00)

Daily predictions for brighter satellites

Satellite Brightness Start Highest point End
(mag) Time Altitude Azimuth Time Altitude Azimuth Time Altitude Azimuth
Kosmos-1783 4.3 20:51:36 10° NW 20:54:59 75° SW 21:01:53 10° SE
Cosmos 1300 3.7 20:57:00 10° NNW 21:00:23 42° W 21:03:44 10° SSW
ARGOS Delta rocket 4.5 20:57:26 10° S 21:01:42 50° W 21:06:00 10° NNW
Cosmos 1908 Rocket 4.0 20:58:07 10° N 21:02:20 48° ENE 21:06:31 10° SSE
Cosmos 2219 Rocket 2.6 20:59:29 10° NW 21:05:05 61° WSW 21:10:40 10° SSE
MOS 1 Rocket 3.6 20:59:56 10° SSE 21:05:16 81° ENE 21:10:23 10° NNW
ATLAS CENTAUR R/B 3.1 21:05:30 10° WSW 21:08:45 34° NW 21:12:09 10° NNE
ERS-1 Rocket 3.3 21:05:09 10° S 21:10:09 69° WSW 21:15:11 10° NNW
Cosmos 1570 Rocket 4.1 21:05:58 10° NNW 21:11:22 81° ENE 21:16:43 10° SSE
USA 281 4.4 21:05:57 10° ESE 21:11:41 33° NE 21:17:25 10° NNW
Terra 2.0 21:08:45 10° S 21:13:27 73° WSW 21:18:12 10° NNW
MetOp-A 4.5 21:10:49 10° SE 21:15:53 51° ENE 21:20:51 10° N
SPOT 5 4.0 21:12:27 10° SSW 21:16:31 37° W 21:20:45 10° NNW
Iridium 51 4.4 21:16:50 10° S 21:21:03 71° E 21:25:04 10° N
Meteor 1-4 Rocket 2.3 21:18:16 10° SSW 21:21:14 69° WNW 21:24:16 10° N
GP-B 4.1 21:19:37 10° NNE 21:23:35 31° E 21:27:24 11° SE
ARIANE 5 R/B 4.2 21:20:34 10° ESE 21:24:02 24° ENE 21:27:32 10° N
Aureole 3 4.2 21:20:47 10° SSW 21:25:24 76° WNW 21:31:14 10° N
Landsat 4 3.7 21:24:44 10° S 21:28:08 67° WSW 21:31:34 10° NNW
NOSS 0 Rocket 4.1 21:23:03 10° NNW 21:29:20 80° NE 21:35:24 11° SE
COSMOS 2428 2.8 21:25:56 10° NNW 21:31:38 77° WSW 21:37:11 11° SSE
Cosmos 1953 2.3 21:28:10 10° NNW 21:32:00 73° W 21:35:47 10° S
Cosmos 1455 2.1 21:30:09 10° NNW 21:33:40 74° W 21:37:09 10° S
Cosmos 2360 Rocket 4.2 21:29:29 10° NW 21:33:42 22° W 21:37:55 10° SSW
CZ-4C R/B 2.5 21:30:33 10° S 21:34:41 36° ESE 21:39:45 10° NE
BREEZE-M DEB (TANK) 4.3 21:13:35 10° WSW 21:35:00 79° S 21:39:50 10° E
SJ 16-02 2.4 21:30:50 10° SW 21:35:01 48° WNW 21:39:15 10° NNE
SPOT 3 Rocket 3.9 21:31:02 10° S 21:36:09 64° WSW 21:41:19 10° NNW
ATLAS 2AS CENTAUR R/B 4.3 21:32:59 10° WNW 21:38:11 24° WSW 21:43:16 10° SSW
BREEZE-M DEB (TANK) 4.5 21:39:51 13° SE 21:39:51 13° SE 21:41:01 10° ESE
Cosmos 1745 Rocket 4.4 21:34:18 10° SSE 21:40:24 51° E 21:46:31 10° NNE
Spot 2 Rocket 4.2 21:35:53 10° S 21:40:49 51° W 21:45:48 10° NNW
Nadezhda 1 Rocket 4.1 21:36:25 10° N 21:42:41 71° ENE 21:48:28 12° SSE
Cosmos 1703 Rocket 3.6 21:42:16 10° S 21:46:44 81° E 21:51:11 10° NNE
Cosmos 1242 Rocket 1.8 21:45:00 10° SSW 21:47:42 79° WNW 21:50:25 10° N
Okean 1-7 3.4 21:44:38 10° SSW 21:48:55 65° WNW 21:53:13 10° N
Cosmos 1315 Rocket 3.5 21:46:32 10° SSW 21:50:27 55° WNW 21:54:25 10° N
Cosmos 2208 Rocket 4.3 21:48:45 10° NNW 21:53:53 63° WSW 21:58:30 13° S
SeaSat 1 3.2 21:52:49 11° S 21:57:20 43° WSW 22:02:01 10° NW
Landsat 5 3.4 21:53:30 10° NNE 21:57:38 82° ESE 22:01:53 10° SSW
H-2A R/B 3.9 21:56:48 11° ESE 22:00:15 28° ENE 22:03:50 10° N
COSMOS 2455 2.9 21:54:33 10° SSW 22:00:30 65° ESE 22:06:30 10° NE
CZ-2C R/B 4.4 21:57:56 10° NNE 22:02:02 36° E 22:05:09 16° SSE
Cosmos 158 Rocket 4.4 21:57:30 10° NNW 22:02:40 56° WSW 22:07:05 13° S
NOSS 8 (E) 4.3 21:59:57 10° SW 22:03:46 89° WNW 22:06:50 10° NE
Cosmos 1408 2.3 22:02:05 18° S 22:04:05 52° E 22:07:01 10° NNE
Cosmos 1174 4.1 22:00:28 10° NW 22:05:33 88° NE 22:08:42 17° SE
Ariane Rocket 4.3 22:01:40 10° SSW 22:06:16 34° W 22:10:54 10° NNW
Cosmos 405 Rocket 3.6 22:03:48 10° N 22:07:20 36° ENE 22:09:55 16° SE
SL-4 R/B 3.3 22:05:19 10° W 22:08:29 24° SW 22:10:35 16° S
ALOS 2 4.3 22:05:01 10° ESE 22:08:30 24° ENE 22:12:01 10° N
SL-16 R/B 3.3 22:07:26 10° NNW 22:12:47 39° NE 22:18:06 10° ESE
BlueWalker 3 2.0 22:09:39 10° WSW 22:13:24 78° NNW 22:17:10 10° ENE
Cosmos 1486 Rocket 3.9 22:09:33 10° SSW 22:14:44 77° ESE 22:19:58 10° NNE
Cosmos 2237 Rocket 2.2 22:09:34 10° NNW 22:15:17 84° WSW 22:19:45 17° SSE
CENTAUR R/B 3.4 22:11:56 16° SSE 22:15:33 28° ESE 22:21:12 10° ENE
Meteor 2-5 Rocket 4.3 22:11:13 15° SSE 22:15:45 47° E 22:21:15 10° NNE
Cosmos 2227 Rocket 3.0 22:18:49 16° SSE 22:22:32 34° ESE 22:27:36 10° NE
Cosmos 1980 3.9 22:23:57 10° NW 22:29:34 64° WSW 22:33:48 18° SSE
Sich 1 Rocket 4.3 22:27:51 10° N 22:32:03 43° ENE 22:34:57 18° SE
USA 234 3.2 22:26:45 10° ENE 22:33:17 70° SE 22:39:48 10° SW
Cosmos 2242 Rocket 3.7 22:31:20 15° S 22:35:07 86° W 22:39:44 10° N
Cosmos 1354 Rocket 4.2 22:31:07 16° S 22:35:19 57° ESE 22:40:30 10° NNE
Okean 1 Rocket 4.2 22:34:01 10° N 22:38:01 33° ENE 22:40:58 16° SE
Cosmos 1709 Rocket 4.0 22:33:28 14° S 22:39:09 88° E 22:45:31 10° N
Cosmos 2297 Rocket 2.2 22:35:50 10° SSW 22:41:29 80° ESE 22:47:10 10° NNE
NOSS 3 (A) 3.8 22:46:57 48° N 22:46:57 48° N 22:48:18 10° NE
Cosmos 371 Rocket 3.7 22:45:50 10° SW 22:50:36 63° WNW 22:55:26 10° NNE
Terra 4.4 22:50:49 10° W 22:51:54 11° W 22:53:00 10° WNW
Cosmos 2219 4.0 22:51:46 20° SSE 22:54:50 34° ESE 22:59:50 10° NE
USA 281 3.3 22:50:46 19° SSE 22:55:44 74° WSW 23:02:22 10° NNW
PSLV R/B 3.8 22:52:35 10° NNE 22:56:37 86° ESE 22:59:12 21° SSW
Meteor 1-24 Rocket 3.7 22:52:47 16° S 22:57:22 89° W 23:02:54 10° NNE
Cosmos 1703 3.5 22:55:32 18° SSW 22:58:07 60° WNW 23:01:46 10° N
ARIANE 5 R/B 3.2 22:57:21 19° SSW 23:00:10 48° W 23:04:26 10° NNW
Orbus 7S? 4.0 22:59:37 10° NW 23:02:22 37° NNE 23:05:00 10° E
Cosmos 1025 Rocket 4.4 23:00:15 18° SE 23:02:23 26° E 23:05:59 10° NNE
Cosmos 2263 Rocket 3.2 23:01:07 19° SSE 23:03:51 29° ESE 23:08:34 10° NE
EXPRESS MD2 4.3 23:02:21 10° WSW 23:02:52 13° WSW 23:02:52 13° WSW
Cosmos 2184 Rocket 4.4 22:59:57 20° SSE 23:04:17 51° E 23:10:27 10° NNE
Cosmos 1455 Rocket 4.4 23:04:15 10° N 23:08:15 31° ENE 23:11:17 15° SE
Cosmos 2084 Rocket 3.7 23:04:33 10° SW 23:08:49 67° NW 23:12:55 10° NE
Cosmos 1378 Rocket 3.5 23:10:39 23° S 23:13:22 87° E 23:17:49 10° N
Cosmos 1674 Rocket 3.5 23:14:09 24° S 23:16:42 80° E 23:21:02 10° NNE
Cosmos 1263 4.1 23:13:36 10° N 23:16:51 88° ENE 23:17:58 35° S
Spot 2 4.4 23:15:35 23° SSE 23:18:49 88° WSW 23:23:48 10° NNW
NOSS 3-2 (A) 3.6 23:18:38 22° S 23:21:47 46° ESE 23:27:39 10° NE
Cosmos 1777 Rocket 4.5 23:17:10 10° SW 23:22:23 60° WNW 23:27:39 10° NNE
Cosmos 2154 Rocket 4.3 23:18:32 21° SSE 23:22:43 57° E 23:28:52 10° NNE
CZ-4C R/B 2.9 23:18:06 10° WSW 23:22:49 52° NW 23:28:51 10° NE
Cosmos 1825 1.8 23:23:13 31° S 23:24:45 86° E 23:28:12 10° N
PSLV R/B 4.0 23:24:46 10° NNE 23:28:49 45° E 23:30:49 26° SSE
Cosmos 2151 Rocket 4.1 23:25:03 10° NNW 23:29:19 50° W 23:31:48 23° SSW
Cosmos 1538 Rocket 4.1 23:26:27 10° NNW 23:31:39 69° WSW 23:34:51 24° S
Cosmos 1818 3.6 23:26:47 10° NW 23:32:19 87° SW 23:36:27 18° SE
NOSS 3-2 (C) 4.3 23:30:22 20° SSE 23:32:37 27° ESE 23:37:36 10° ENE
Okean 2 Rocket 3.6 23:29:56 10° NNW 23:34:16 50° W 23:36:50 23° SSW
H-2A R/B 3.4 23:32:47 21° SSW 23:35:04 38° W 23:39:00 10° NNW
Cosmos 1892 2.8 23:34:58 26° SSW 23:36:45 60° WNW 23:40:16 10° N
Cosmos 1328 3.7 23:41:31 29° S 23:43:25 85° E 23:47:19 10° NNE
ALOS 2 3.1 23:42:15 24° SSW 23:44:35 49° W 23:48:52 10° NNW
Cosmos 332 Rocket 4.4 23:42:23 13° SW 23:46:40 54° WNW 23:51:29 10° NNE
COSMOS 2455 4.3 23:41:17 10° WSW 23:46:50 37° NW 23:52:26 10° NNE
Meteor 2-11 Rocket 4.5 23:45:26 22° S 23:49:27 76° E 23:55:34 10° NNE
Aureole 1 Rocket 3.1 23:48:39 28° S 23:50:44 66° ESE 23:55:49 10° NNE
Cosmos 1937 Rocket 4.2 23:48:31 23° SSE 23:51:18 41° ESE 23:56:11 10° NE
BlueWalker 3 2.2 23:48:02 10° WNW 23:51:46 66° N 23:55:30 10° E
